Home   Weather   Sheboygan   Past weeks

Flag for USA Past Weather in Sheboygan, Wisconsin, USA — Yesterday and Last 2 Weeks

Now
36 °F

Fog.


Feels Like: 31 °F
Forecast: 36 / 39 °F
Wind: 6 mph from North

Location: Sheboygan County Memorial Airport

Current Time: Jan 23, 2017 at 8:57:54 am

Latest Report: Jan 23, 2017 at 8:12 am


Visibility: 1 mi

Pressure: 29.75 "Hg

Humidity: 97%

Dew Point: 35 °F

Location of SheboyganLocation

Past Weather in Sheboygan — Graph

°F

Sheboygan Temperature Yesterday

Maximum temperature yesterday: 44 °F (at 12:53 pm)
Minimum temperature yesterday: 35 °F (at 2:01 am)
Average temperature yesterday: 38 °F

High & Low Weather Summary for the Past Weeks

 TemperatureHumidityPressure
High44 °F (Jan 22, 12:53 pm)100% (Jan 10, 2:38 pm)30.87 "Hg (Jan 10, 2:38 pm)
Low0 °F (Jan 8, 7:53 am)49% (Jan 8, 7:53 pm)29.08 "Hg (Jan 10, 2:38 pm)
Average28 °F84%29.96 "Hg
* Reported Jan 8 7:53 am — Jan 23 7:53 am, Sheboygan, Weather by CustomWeather, © 2017

Note: Actual official high and low records may vary slightly from our data, if they occured in-between our weather recording intervals... More about our weather records

Advertising

Sheboygan Weather History for the Previous 24 Hours

Scroll right to see more
 ConditionsComfort  
Time TempWeatherWind HumidityBarometerVisibility
7:53 am
Mon, Jan 23
36 °FFog.3 mph97%29.78 "Hg1 mi
7:22 am36 °FFog.5 mph97%29.75 "Hg2 mi
6:53 am36 °FFog.6 mph97%29.76 "Hg1 mi
5:53 am36 °FFog.6 mph97%29.75 "Hg1 mi
4:53 am36 °FFog.5 mph97%29.74 "Hg1 mi
4:36 am36 °FFog.3 mph97%29.72 "Hg1 mi
4:09 am36 °FFog.3 mph97%29.72 "Hg2 mi
3:53 am36 °FFog.5 mph97%29.73 "Hg2 mi
3:20 am36 °FFog.8 mph92%29.71 "Hg4 mi
2:53 am37 °FFog.6 mph93%29.72 "Hg5 mi
2:37 am37 °FFog.6 mph93%29.71 "Hg5 mi
1:53 am37 °FOvercast.6 mph93%29.73 "Hg7 mi
1:38 am37 °FOvercast.6 mph93%29.72 "Hg7 mi
12:53 am36 °FFog.3 mph92%29.73 "Hg5 mi
12:31 am36 °FFog.No wind92%29.72 "Hg4 mi
11:53 pm
Sun, Jan 22
36 °FFog.No wind92%29.73 "Hg5 mi
10:53 pm37 °FOvercast.7 mph93%29.73 "Hg7 mi
9:53 pm37 °FFog.No wind96%29.71 "Hg5 mi
8:53 pm38 °FLow clouds.7 mph90%29.69 "Hg7 mi
8:10 pm37 °FFog.6 mph93%29.68 "Hg6 mi
7:53 pm37 °FFog.3 mph93%29.70 "Hg5 mi
6:53 pm37 °FLow clouds.No wind93%29.70 "Hg7 mi
5:53 pm37 °FLow clouds.No wind96%29.70 "Hg8 mi
4:53 pm37 °FLow clouds.6 mph93%29.69 "Hg8 mi
4:01 pm39 °FPartly sunny.9 mph86%29.66 "Hg7 mi
2:53 pm44 °FPartly sunny.7 mph79%29.65 "Hg10 mi
1:53 pm43 °FPartly sunny.8 mph82%29.63 "Hg10 mi
12:53 pm44 °FLow clouds.7 mph82%29.63 "Hg10 mi
11:53 am42 °FLow clouds.6 mph89%29.64 "Hg9 mi
10:53 am41 °FFog.7 mph93%29.66 "Hg6 mi
10:30 am40 °FFog.7 mph93%29.65 "Hg6 mi
10:09 am40 °FFog.5 mph97%29.65 "Hg4 mi
9:59 am39 °FFog.5 mph96%29.65 "Hg3 mi
9:42 am39 °FFog.5 mph96%29.65 "Hg2 mi
8:53 am37 °FFog.3 mph96%29.65 "Hg1 mi
8:31 am37 °FFog.No wind96%29.63 "Hg1 mi
8:01 am37 °FFog.No wind96%29.62 "Hg0 mi
Weather by CustomWeather, © 2017

See weather overviewHow to use our weather pages